Temp
8 8 8 8 8 8 8 8 8 8 8 8 8 8 8 8 8 8 8 8 7 7 7 7 7 8 8 8 8 8 8 8 8 8 8 7 7 7 7 7 7 7 7 6 7 8 8 8 8
8 8 8 8 8 8 8 8 8 8 8 8 8 8 8 8 8 8 8 7 7 7 7 7 8 8 8 8 8 8 9 9 9 9 9 9 8 7 7 7 7 7 7 7 6 8 8 8 8
7 8 8 8 9 9 9 8 8 8 8 8 8 8 7 8 8 8 8 7 7 7 8 8 8 8 9 9 9 9 9 9 9 9 9 9 9 8 8 7 7 6 6 6 7 7 7 7 8
7 8 8 8 8 9 9 9 8 7 8 8 8 8 8 9 8 8 8 8 8 8 8 8 9 9 9 9 9 9 9 9 9 9 10 10 9 9 9 8 7 7 6 6 6 7 7 7 7
7 8 8 8 8 8 8 8 8 7 8 8 8 8 9 9 9 9 9 8 8 8 8 8 9 9 9 9 9 9 9 9 10 10 10 10 10 10 9 9 8 7 7 6 6 6 6 7 6
7 8 8 8 8 8 8 8 8 7 8 8 8 9 9 9 9 9 9 9 8 8 8 9 9 9 9 9 9 9 9 10 10 10 10 10 10 10 10 10 9 9 8 6 6 5 6 6 6
7 7 8 8 8 8 8 8 8 7 8 8 9 9 9 9 10 9 9 9 9 9 9 9 9 9 9 9 9 10 10 10 10 10 10 10 10 11 11 11 10 9 9 8 7 6 6 6 6
7 7 7 8 8 8 8 9 9 8 8 9 9 9 9 9 9 9 9 9 9 9 9 9 9 9 10 10 10 10 10 10 10 10 10 10 10 10 11 11 10 10 9 8 8 6 5 5 6
8 7 7 8 8 9 9 9 9 9 9 9 9 9 10 10 9 9 9 9 9 9 9 9 9 9 9 10 10 10 10 10 10 10 10 10 10 10 11 11 11 10 10 9 9 8 6 5 5
8 8 8 8 9 9 9 9 9 9 9 10 9 9 9 9 9 9 9 9 9 9 9 9 9 10 10 10 10 10 10 10 10 10 10 10 11 11 11 11 11 11 10 10 9 9 7 6 5
9 9 8 8 9 9 9 9 10 10 10 10 9 9 9 9 9 9 9 9 9 9 9 9 9 9 9 10 10 10 10 10 10 10 10 10 10 10 11 11 11 11 11 11 10 9 9 7 6
9 9 8 9 9 9 9 9 10 10 10 10 10 9 9 9 9 9 9 9 9 9 9 9 9 9 9 9 9 9 9 10 10 10 10 10 10 10 10 10 10 10 11 11 11 10 9 8 6
9 9 9 9 9 9 9 9 10 10 10 10 10 10 10 9 9 9 9 9 9 9 9 9 9 9 9 9 9 9 9 9 9 9 9 10 10 10 10 10 10 10 10 10 10 10 10 9 8
9 8 9 8 9 9 9 9 10 10 10 10 10 10 10 10 9 9 9 9 9 9 9 9 9 9 9 9 9 9 9 9 9 9 9 9 9 9 9 10 10 10 10 10 10 10 10 9 9
8 8 8 9 9 9 9 9 11 10 10 10 10 10 10 10 10 9 9 9 9 9 9 9 9 9 9 9 9 9 9 9 9 9 9 9 9 9 9 9 9 9 9 9 10 10 10 10 9
7 7 8 9 9 9 9 10 10 10 10 10 10 10 10 10 9 9 9 9 9 9 8 8 8 8 8 8 8 8 8 8 8 8 8 8 8 8 9 9 9 9 9 9 9 9 9 9 9
7 7 8 8 9 9 9 10 10 10 10 10 10 10 10 10 10 9 9 9 9 9 8 8 8 8 8 8 8 8 8 8 8 8 8 8 8 8 8 8 8 8 8 8 9 9 9 9 9
7 7 8 8 9 9 9 10 10 10 10 10 10 10 10 10 9 9 9 9 9 8 8 8 8 8 8 8 8 8 8 8 8 8 8 8 8 7 7 7 7 8 8 8 8 8 8 8 9
7 7 8 8 8 8 9 9 9 9 9 10 10 10 10 10 9 9 9 9 9 8 8 8 8 8 8 8 8 8 8 8 8 8 8 7 7 7 7 7 7 7 7 7 7 7 8 8 8
6 6 6 7 7 7 8 9 9 9 10 9 9 10 10 9 9 9 9 9 8 8 8 8 8 8 8 8 8 8 8 8 7 7 7 7 7 6 6 6 6 6 6 7 7 7 7 7 7
4 5 6 6 7 7 7 8 9 9 9 9 9 9 10 10 9 9 9 9 8 8 8 7 8 8 7 7 7 7 7 7 7 7 7 7 6 6 6 6 6 6 6 6 6 6 6 6 7
5 4 5 5 5 5 5 5 8 9 9 9 9 9 10 10 9 9 9 9 9 8 8 8 8 7 7 7 7 7 7 7 7 7 6 6 6 5 5 5 5 5 5 5 5 5 5 6 6
4 4 4 4 4 4 4 3 7 8 9 9 10 10 10 10 9 9 9 9 8 8 7 7 7 7 7 7 7 7 7 7 6 6 6 5 5 5 5 5 5 5 5 5 5 5 5 5 5
3 3 3 3 3 -1 3 3 5 7 9 10 10 10 10 9 9 9 9 8 8 8 8 7 7 7 7 7 6 6 6 6 6 6 5 5 5 5 4 4 4 4 4 4 4 4 4 4 4
2 2 1 -2 -5 -3 3 2 5 8 8 9 9 10 9 9 9 9 9 9 8 8 7 7 7 7 6 6 6 6 6 6 6 5 5 4 4 4 4 4 4 4 4 4 4 3 4 4 4
1 2 3 -3 -7 -3 1 3 6 7 8 8 9 9 9 9 9 9 9 8 8 7 7 6 6 6 6 6 6 6 6 6 5 5 4 4 4 4 4 4 3 3 3 3 3 3 3 3 3
0 1 2 1 -1 -2 2 3 5 6 7 7 8 8 9 9 9 8 8 8 7 7 7 6 6 6 6 6 6 6 5 5 4 4 4 4 3 3 3 3 3 3 3 2 2 2 2 2 2
1 1 -0 0 -5 -4 -1 2 5 6 6 7 7 7 8 8 7 7 7 7 7 7 6 6 6 5 6 6 6 5 5 4 4 4 4 3 2 2 2 2 2 2 2 2 2 2 2 2 2
-1 -1 0 1 1 -5 -8 3 6 6 6 6 6 7 7 7 7 6 6 6 6 6 6 5 5 5 5 5 5 4 4 4 4 4 3 2 2 2 1 2 2 2 2 1 1 1 1 1 1
-1 -0 1 1 -2 0 0 3 5 5 6 5 6 6 6 6 6 6 5 5 5 5 4 4 4 4 4 4 4 4 4 4 4 3 2 2 1 1 1 1 1 1 1 1 1 1 0 0 0
Height
3165 3168 3171 3174 3180 3178 3178 3180 3181 3181 3183 3183 3184 3185 3187 3186 3187 3192 3188 3188 3188 3189 3190 3190 3190 3190 3189 3189 3189 3188 3187 3188 3188 3188 3187 3187 3187 3187 3187 3188 3188 3188 3188 3187 3186 3186 3185 3184 3183
3166 3169 3172 3174 3177 3177 3179 3179 3180 3181 3183 3184 3184 3185 3186 3186 3186 3187 3187 3187 3188 3189 3189 3190 3190 3190 3190 3189 3189 3189 3188 3188 3187 3187 3186 3186 3186 3186 3186 3187 3187 3187 3187 3186 3186 3186 3185 3184 3183
3166 3169 3173 3174 3175 3175 3177 3178 3179 3180 3182 3183 3185 3185 3185 3186 3187 3187 3186 3186 3188 3189 3189 3189 3189 3190 3190 3190 3190 3189 3189 3188 3188 3186 3186 3185 3185 3185 3185 3185 3186 3187 3186 3186 3185 3185 3185 3184 3184
3167 3170 3174 3174 3175 3176 3177 3177 3178 3180 3182 3183 3184 3185 3185 3185 3186 3187 3186 3187 3187 3189 3190 3190 3189 3189 3189 3190 3190 3190 3189 3189 3188 3187 3186 3185 3184 3183 3183 3184 3184 3184 3185 3185 3185 3185 3184 3184 3184
3166 3169 3171 3172 3174 3175 3176 3176 3177 3179 3181 3182 3183 3184 3184 3185 3186 3186 3186 3187 3188 3189 3190 3190 3190 3190 3191 3191 3191 3190 3190 3189 3189 3188 3187 3185 3184 3183 3182 3182 3182 3182 3183 3184 3184 3184 3184 3184 3183
3166 3168 3170 3171 3173 3174 3175 3176 3177 3179 3180 3182 3183 3184 3184 3185 3186 3186 3187 3187 3188 3189 3189 3190 3190 3191 3191 3191 3191 3191 3191 3191 3190 3189 3188 3187 3185 3183 3182 3181 3181 3181 3181 3182 3183 3183 3182 3182 3183
3165 3167 3169 3170 3172 3173 3174 3174 3176 3178 3180 3181 3183 3183 3185 3185 3186 3187 3187 3187 3188 3189 3189 3190 3191 3191 3192 3191 3192 3192 3192 3191 3191 3190 3189 3188 3186 3185 3182 3181 3180 3179 3179 3180 3180 3181 3181 3181 3181
3164 3168 3168 3169 3170 3172 3172 3173 3175 3176 3179 3180 3182 3183 3184 3184 3185 3186 3187 3187 3188 3189 3189 3190 3190 3191 3192 3192 3192 3192 3192 3191 3191 3190 3190 3189 3187 3186 3184 3182 3181 3179 3178 3178 3179 3179 3179 3179 3178
3163 3165 3166 3167 3169 3171 3171 3171 3173 3175 3177 3179 3181 3182 3183 3184 3184 3186 3187 3188 3189 3189 3190 3190 3191 3191 3192 3193 3193 3193 3192 3192 3191 3191 3190 3189 3188 3187 3185 3183 3181 3180 3178 3177 3177 3177 3177 3177 3176
3161 3163 3165 3166 3168 3169 3170 3170 3172 3174 3176 3178 3180 3181 3183 3183 3184 3185 3186 3187 3188 3189 3189 3190 3191 3192 3192 3193 3193 3192 3192 3192 3191 3191 3190 3189 3188 3187 3186 3184 3183 3180 3179 3177 3176 3175 3175 3175 3175
3159 3161 3164 3165 3167 3168 3168 3169 3170 3171 3173 3177 3179 3180 3181 3182 3183 3184 3185 3186 3187 3188 3189 3190 3190 3191 3192 3192 3192 3192 3191 3191 3191 3190 3190 3189 3188 3187 3186 3184 3183 3181 3180 3178 3176 3175 3174 3174 3173
3158 3160 3162 3164 3165 3166 3167 3167 3168 3170 3173 3175 3177 3178 3180 3181 3182 3183 3184 3186 3187 3188 3189 3189 3190 3191 3191 3191 3192 3191 3191 3191 3190 3190 3189 3188 3187 3187 3186 3185 3183 3182 3181 3179 3176 3175 3174 3173 3171
3156 3158 3160 3162 3163 3164 3165 3166 3166 3168 3171 3173 3175 3177 3178 3179 3181 3182 3183 3185 3186 3187 3188 3189 3189 3190 3190 3191 3191 3191 3190 3190 3189 3189 3188 3188 3187 3186 3185 3184 3183 3182 3181 3179 3177 3175 3174 3172 3171
3153 3156 3158 3159 3161 3162 3163 3164 3164 3166 3169 3171 3173 3174 3176 3177 3179 3180 3182 3183 3185 3186 3187 3188 3188 3189 3189 3189 3189 3189 3189 3189 3189 3188 3187 3187 3186 3185 3184 3183 3182 3181 3180 3179 3177 3176 3174 3172 3170
3150 3153 3155 3156 3158 3159 3160 3161 3162 3164 3166 3168 3170 3171 3173 3175 3177 3178 3180 3181 3183 3184 3185 3186 3187 3187 3187 3187 3188 3188 3188 3188 3187 3187 3186 3185 3185 3184 3183 3182 3181 3181 3179 3178 3177 3176 3174 3172 3171
3148 3150 3151 3152 3154 3155 3158 3158 3159 3161 3163 3165 3167 3169 3171 3173 3174 3176 3178 3179 3181 3182 3183 3184 3184 3185 3186 3186 3186 3186 3186 3186 3186 3185 3185 3184 3183 3183 3182 3181 3180 3179 3178 3177 3176 3175 3174 3173 3171
3145 3145 3147 3149 3150 3152 3154 3154 3156 3158 3160 3162 3164 3166 3168 3170 3172 3174 3176 3177 3178 3179 3180 3181 3182 3183 3183 3184 3184 3185 3185 3184 3184 3184 3183 3182 3182 3181 3181 3180 3179 3178 3177 3176 3175 3174 3174 3172 3171
3140 3142 3144 3145 3148 3148 3149 3151 3152 3154 3156 3159 3160 3162 3165 3167 3170 3171 3172 3174 3175 3176 3177 3178 3179 3180 3181 3182 3182 3182 3182 3182 3182 3182 3181 3180 3180 3179 3178 3177 3177 3176 3176 3175 3174 3173 3172 3171 3170
3138 3140 3141 3143 3144 3144 3145 3146 3149 3150 3152 3154 3156 3159 3161 3164 3166 3167 3169 3170 3171 3173 3174 3175 3176 3178 3179 3179 3180 3180 3180 3180 3180 3179 3179 3178 3177 3177 3176 3175 3175 3174 3173 3172 3172 3171 3171 3170 3169
3135 3136 3137 3139 3140 3141 3140 3140 3143 3144 3147 3150 3152 3154 3157 3159 3161 3163 3165 3167 3168 3169 3170 3171 3173 3174 3175 3176 3177 3177 3177 3177 3177 3176 3176 3176 3175 3174 3174 3173 3173 3172 3171 3170 3170 3170 3170 3169 3168
3131 3133 3136 3137 3138 3137 3137 3133 3136 3139 3140 3144 3146 3149 3151 3153 3156 3158 3161 3163 3164 3165 3166 3167 3169 3170 3172 3172 3173 3173 3173 3173 3173 3173 3172 3172 3171 3171 3171 3171 3171 3170 3169 3169 3169 3168 3168 3168 3167
3126 3129 3133 3134 3136 3135 3135 3127 3127 3132 3134 3135 3141 3143 3146 3148 3151 3153 3155 3157 3160 3161 3161 3162 3164 3165 3167 3168 3169 3169 3169 3169 3169 3169 3169 3168 3168 3168 3168 3168 3168 3168 3167 3166 3166 3166 3166 3166 3166
3121 3125 3129 3131 3131 3131 3129 3131 3116 3124 3125 3129 3134 3136 3139 3142 3145 3147 3149 3152 3154 3155 3156 3157 3158 3160 3162 3163 3164 3164 3164 3165 3164 3165 3165 3165 3165 3164 3164 3164 3164 3164 3164 3164 3163 3163 3164 3164 3165
3118 3122 3126 3128 3129 3125 3120 3125 3107 3113 3119 3124 3128 3131 3133 3135 3137 3140 3142 3143 3146 3148 3149 3150 3153 3155 3156 3158 3159 3159 3160 3160 3160 3160 3161 3161 3161 3161 3161 3160 3160 3160 3160 3160 3161 3161 3161 3161 3161
3112 3118 3124 3130 3129 3114 3113 3116 3097 3107 3110 3116 3120 3123 3126 3127 3129 3131 3133 3135 3139 3141 3143 3145 3147 3149 3150 3152 3154 3155 3155 3155 3155 3155 3156 3156 3157 3156 3156 3156 3156 3156 3156 3157 3158 3158 3158 3158 3158
3105 3109 3109 3121 3120 3106 3109 3099 3090 3099 3105 3108 3112 3115 3117 3119 3120 3122 3125 3129 3131 3133 3136 3138 3140 3142 3143 3145 3147 3149 3149 3150 3150 3151 3151 3151 3152 3152 3152 3152 3152 3153 3153 3154 3154 3155 3155 3155 3155
3098 3101 3103 3105 3106 3105 3096 3088 3089 3093 3098 3102 3105 3108 3111 3112 3113 3116 3119 3121 3123 3125 3128 3131 3133 3134 3137 3139 3141 3143 3143 3144 3145 3145 3146 3146 3147 3147 3148 3148 3148 3149 3150 3150 3151 3151 3152 3152 3152
3089 3092 3099 3101 3106 3106 3088 3085 3084 3087 3091 3096 3098 3102 3104 3105 3107 3110 3112 3114 3116 3119 3121 3123 3125 3129 3131 3133 3135 3136 3137 3138 3139 3140 3140 3140 3141 3142 3143 3143 3144 3144 3145 3145 3146 3146 3146 3147 3148
3080 3082 3087 3090 3091 3088 3093 3079 3080 3082 3086 3089 3092 3094 3096 3098 3100 3102 3105 3108 3109 3111 3114 3117 3120 3123 3125 3127 3128 3130 3131 3132 3132 3133 3133 3134 3135 3137 3137 3138 3139 3139 3139 3140 3140 3140 3141 3142 3143
3068 3071 3076 3078 3079 3082 3081 3072 3077 3079 3081 3084 3086 3088 3090 3092 3094 3096 3099 3101 3104 3106 3109 3112 3115 3117 3119 3121 3122 3124 3125 3125 3126 3127 3127 3127 3129 3130 3131 3132 3133 3134 3134 3134 3135 3135 3136 3137 3137
Wind_Speed
18 17 20 22 6 4 11 9 11 14 13 11 9 9 5 3 5 0 4 9 10 6 4 2 1 3 4 3 4 4 4 3 2 0 2 2 2 3 6 7 6 4 4 6 9 8 7 8 9
19 18 18 20 3 5 7 8 14 13 11 12 8 9 6 4 6 1 1 9 10 7 3 1 1 3 3 4 5 5 5 5 4 3 1 2 4 5 4 4 5 3 3 3 5 5 7 9 9
20 20 17 15 1 1 2 7 13 15 13 11 9 9 7 6 8 2 5 10 8 7 4 3 3 4 4 5 6 6 6 6 6 5 3 2 3 6 7 7 6 4 2 2 2 3 3 7 7
21 20 12 6 3 3 1 1 9 13 13 10 9 7 8 5 7 5 6 8 8 7 5 4 4 4 5 6 6 8 9 9 10 10 9 6 2 4 7 9 10 8 5 3 1 2 3 5 5
22 21 10 9 4 2 1 6 10 12 12 9 8 4 7 6 6 6 7 8 7 6 6 5 5 6 6 6 7 9 10 11 11 12 12 11 9 5 2 7 10 11 10 5 3 3 2 3 4
23 22 13 11 7 3 4 6 11 14 12 10 9 6 6 6 7 7 7 7 7 7 6 5 6 6 7 7 8 9 9 10 11 12 13 13 12 11 7 2 6 10 12 13 8 6 5 5 4
26 24 16 15 10 7 7 4 11 14 13 11 8 8 6 7 7 8 7 7 6 5 6 6 6 7 7 7 7 8 8 8 9 10 12 13 14 14 13 10 5 5 8 11 13 12 10 9 8
25 24 18 20 15 8 6 7 11 15 13 11 9 6 6 7 7 8 7 6 5 5 5 5 6 7 6 7 6 6 6 7 8 9 10 10 12 13 14 14 11 6 3 7 10 13 13 12 12
25 22 21 19 15 8 6 7 9 13 12 10 9 6 8 7 7 7 7 7 6 5 5 4 4 5 4 4 4 4 4 5 6 7 8 9 11 12 13 13 13 12 8 4 6 10 13 14 15
25 25 23 18 13 7 6 7 9 12 12 10 9 9 6 6 7 8 8 8 7 6 5 4 4 4 3 2 1 3 4 4 5 6 7 8 9 10 11 12 13 13 13 10 6 5 9 14 16
24 24 20 22 16 12 9 9 10 13 12 9 8 9 7 5 6 8 9 8 8 7 6 5 5 4 3 2 1 2 3 5 6 7 7 7 7 8 9 10 11 13 13 13 12 8 5 8 13
22 21 21 19 13 10 10 11 11 13 12 10 9 9 7 6 7 8 9 9 8 7 7 7 6 5 4 3 3 3 3 4 5 6 7 8 8 8 8 8 9 10 11 13 13 13 9 5 6
19 17 19 17 14 12 11 12 14 13 12 11 10 9 8 7 7 9 9 9 9 8 7 6 5 4 4 4 4 5 5 6 6 6 6 6 7 8 9 10 9 9 10 10 11 11 12 9 6
19 19 17 18 18 15 14 13 15 15 13 13 11 11 9 8 8 8 9 9 9 9 8 6 6 6 6 6 6 6 6 6 6 7 8 8 7 7 8 8 8 9 9 10 10 11 11 10 8
18 20 20 19 17 17 15 17 15 15 15 15 13 12 11 10 8 9 9 9 9 8 8 7 7 7 8 7 6 6 6 6 6 7 8 9 9 9 9 9 8 8 8 9 10 10 11 11 11
21 19 19 23 21 19 18 17 17 17 17 15 15 15 13 12 12 11 11 10 10 10 9 8 8 8 8 7 7 6 6 6 7 8 8 9 9 9 10 10 9 9 8 8 8 8 9 10 11
22 16 24 21 21 21 21 19 19 19 19 19 17 16 16 15 14 12 12 12 13 12 11 11 10 9 8 7 7 7 7 7 8 9 9 9 10 10 10 10 10 9 9 9 8 7 7 8 9
22 26 22 24 21 22 24 23 18 20 19 20 19 19 17 17 14 16 15 15 16 15 13 12 11 10 9 8 8 8 8 9 9 10 10 10 10 10 10 10 10 10 10 10 9 8 6 7 7
19 21 20 23 23 21 24 24 22 21 21 21 20 20 18 17 18 19 18 18 18 16 14 15 13 12 11 10 10 10 10 10 11 12 12 12 11 11 10 10 10 10 10 10 10 8 7 6 6
25 20 21 20 21 22 24 28 26 28 26 24 21 21 20 20 22 20 19 19 17 18 18 17 16 15 14 13 12 11 12 13 13 13 14 14 13 12 11 11 10 10 10 10 10 9 8 7 7
27 24 21 20 19 23 25 33 31 29 31 29 28 25 25 24 23 22 20 19 19 19 19 19 19 18 15 15 14 14 14 15 15 15 15 15 14 13 12 11 11 11 11 10 10 10 9 8 8
30 27 20 19 20 13 19 12 30 33 34 33 29 29 28 26 25 24 22 21 19 19 22 22 22 20 18 18 16 16 17 16 16 17 17 16 15 14 13 12 12 11 11 11 11 10 10 9 9
29 26 25 21 22 21 23 11 32 34 32 34 32 31 29 28 27 25 24 22 21 23 24 25 25 24 21 20 19 18 19 18 18 18 18 17 16 15 14 13 13 12 12 12 12 11 11 10 9
26 22 19 19 18 11 30 24 26 35 35 30 27 28 28 28 28 29 30 29 28 28 29 29 27 26 24 22 21 21 21 20 20 20 19 18 17 16 15 15 15 14 13 13 12 12 12 12 11
29 22 4 3 3 8 12 18 41 26 30 30 27 29 28 27 28 30 31 31 31 31 30 30 29 27 26 26 24 23 23 23 22 21 20 19 18 17 16 16 16 15 14 14 13 13 13 13 12
31 31 13 9 5 4 13 18 24 10 22 21 20 21 23 27 33 34 31 29 30 32 32 31 31 31 31 29 25 24 25 25 23 21 20 20 20 19 18 18 17 16 15 15 14 14 15 14 14
32 33 33 6 2 1 10 19 32 26 23 28 29 29 26 26 26 26 28 29 29 30 28 28 29 29 27 25 24 24 24 23 21 22 22 22 22 20 20 19 18 17 16 16 16 16 16 16 16
29 33 18 18 3 4 7 12 14 4 10 20 21 20 22 25 28 27 26 25 26 28 28 28 27 24 24 24 23 24 22 21 21 21 23 25 23 22 21 19 17 17 18 18 18 17 17 17 17
37 31 22 17 18 6 1 10 20 21 18 18 21 23 24 25 27 27 26 25 26 28 27 24 23 21 20 20 19 19 20 20 22 23 26 26 24 23 22 20 19 19 19 19 19 19 19 19 18
41 41 41 22 12 18 12 22 8 4 10 17 20 23 25 26 26 25 26 21 22 22 21 19 17 16 16 16 16 18 21 23 23 24 26 27 26 25 23 22 21 20 21 21 20 20 21 21 20
Wind_Direction
153 151 153 159 156 141 152 162 182 182 181 180 190 195 219 207 166 302 136 164 179 168 165 146 348 350 16 27 30 32 35 30 30 321 234 212 189 155 115 94 85 84 76 57 63 52 42 36 30
152 153 160 173 209 166 175 184 186 192 183 192 205 210 213 204 190 93 161 163 175 183 201 184 79 63 59 58 59 56 45 39 31 19 317 241 224 222 187 155 116 111 98 85 64 53 44 36 35
155 157 161 177 212 139 200 214 198 203 195 200 207 206 218 219 214 214 121 163 169 166 156 116 97 89 81 74 72 64 54 49 47 40 20 321 250 234 226 210 195 145 141 148 85 43 22 25 28
162 165 165 181 147 176 209 217 194 201 199 194 196 203 210 199 176 170 134 138 136 132 131 125 109 96 89 86 79 74 65 61 58 58 52 41 14 252 239 229 218 214 193 222 224 288 349 15 20
170 173 168 181 181 187 302 162 169 181 195 201 194 199 184 172 169 172 147 137 135 133 133 127 119 112 108 102 91 78 70 65 64 60 52 46 43 31 286 249 240 227 227 214 243 259 285 337 356
178 183 187 187 206 236 274 186 180 184 196 197 192 181 167 175 168 163 154 147 144 141 134 123 116 111 108 102 92 82 75 70 64 56 52 51 50 49 37 345 253 245 237 233 226 233 258 272 292
185 189 197 202 214 248 259 236 189 193 199 203 192 193 175 177 168 163 159 153 149 142 136 131 124 119 113 103 91 80 71 64 54 49 45 47 46 45 46 40 23 273 255 249 242 242 253 261 273
191 193 200 208 225 242 241 233 203 193 202 198 193 193 181 182 178 171 166 161 158 156 147 141 138 129 125 117 106 87 67 54 45 40 35 33 38 37 40 38 38 29 308 268 254 243 244 255 263
196 195 200 207 212 222 263 246 203 200 204 197 190 170 184 190 193 184 175 171 171 170 164 158 150 139 133 118 101 82 63 47 33 25 23 19 22 23 28 32 33 30 25 354 272 252 244 246 257
198 206 206 213 228 239 268 248 212 205 203 197 193 207 203 190 192 190 188 182 181 175 170 167 165 162 155 129 51 22 19 13 9 6 9 6 6 9 12 16 19 22 20 19 359 300 249 245 248
207 212 213 226 239 256 255 242 222 204 205 200 195 207 212 204 197 190 190 191 188 184 181 178 173 181 185 186 253 314 330 332 339 342 346 352 353 355 358 5 6 8 12 13 12 357 325 256 252
211 216 220 230 235 240 258 243 235 218 205 210 206 210 215 208 193 191 196 191 188 188 186 185 188 193 201 225 257 274 291 301 310 318 324 329 334 345 350 353 358 358 1 3 4 5 1 325 280
217 222 225 229 231 246 256 250 239 218 213 212 214 216 219 214 202 193 200 192 192 194 195 194 206 224 241 254 268 280 289 297 303 307 311 313 318 325 332 336 344 349 351 354 356 357 359 359 336
217 220 224 231 239 247 251 241 231 220 214 213 215 221 221 219 211 197 201 198 198 200 204 210 221 233 246 254 260 270 279 288 298 307 313 314 314 314 313 315 322 333 337 339 344 349 354 358 354
214 216 224 229 234 241 246 238 225 225 217 216 214 221 225 225 216 209 215 210 213 215 217 224 234 242 245 247 252 261 272 284 295 300 303 304 305 306 306 307 311 319 324 327 331 338 342 344 347
216 217 217 225 230 235 235 238 226 225 219 218 218 220 223 226 224 219 223 223 229 231 236 242 244 243 244 247 250 255 264 274 281 290 292 294 294 294 294 296 301 307 310 313 316 322 328 333 339
213 220 222 226 226 230 230 236 231 227 224 222 222 222 223 225 226 228 229 230 235 238 239 243 248 248 244 243 248 258 265 275 286 293 295 296 293 289 287 287 290 295 298 299 298 303 314 323 332
216 220 225 226 230 231 235 234 234 229 228 230 228 227 225 226 223 226 229 232 238 240 241 241 239 237 242 248 252 260 270 278 286 292 295 293 289 284 280 278 279 281 283 285 286 291 301 314 326
230 233 236 236 233 234 240 241 237 236 230 231 232 234 231 228 227 227 230 234 238 244 244 240 237 238 246 251 257 263 270 278 283 288 293 294 290 283 277 274 273 273 276 281 282 282 284 296 313
232 236 232 235 233 237 242 243 235 237 235 234 234 232 232 229 232 233 235 237 236 238 239 241 239 242 247 251 257 266 275 278 281 287 292 294 293 291 288 284 279 277 275 272 274 273 274 280 291
228 234 235 233 235 240 247 251 240 237 239 235 234 235 233 233 234 236 236 238 236 237 239 239 239 242 249 252 259 270 277 278 281 285 289 292 293 291 287 283 280 276 274 271 266 261 262 272 281
229 231 233 236 242 240 240 264 251 241 240 240 235 237 238 239 239 239 237 236 239 237 237 240 242 244 248 254 260 270 276 280 282 284 287 290 291 286 284 283 280 273 269 266 263 259 256 258 264
228 229 230 233 237 247 243 245 258 248 239 239 241 241 243 243 241 240 241 239 236 236 237 239 241 243 248 255 261 270 274 277 278 278 281 284 285 283 281 279 276 271 264 259 255 251 252 256 261
226 225 222 228 239 258 246 236 258 249 250 248 246 245 245 243 242 241 239 236 233 232 235 238 241 244 247 255 261 266 270 271 273 274 275 278 279 277 277 277 275 270 264 259 257 253 250 251 254
216 204 151 247 206 237 215 225 242 250 253 255 253 247 242 238 236 235 236 237 237 239 239 240 243 245 250 252 257 261 263 267 271 270 270 272 272 271 271 270 269 266 263 261 258 255 254 253 253
208 203 194 196 198 237 193 232 251 251 232 234 226 233 239 241 237 239 240 238 237 239 239 239 241 247 251 252 250 253 259 265 267 267 265 265 265 266 266 266 266 266 264 260 256 254 253 251 250
209 207 221 230 252 286 221 250 257 249 245 252 251 248 244 235 234 239 239 237 238 238 235 236 237 240 243 244 247 254 259 263 261 263 262 259 259 260 261 264 267 267 265 262 258 254 253 254 253
211 209 202 213 166 252 245 251 232 219 240 242 244 245 235 239 243 245 240 234 234 236 233 229 231 232 237 244 250 256 257 261 267 265 260 255 255 256 259 263 265 265 264 263 261 259 256 254 253
208 206 205 207 226 188 223 259 263 251 244 229 232 234 231 232 241 243 240 240 238 231 226 222 223 233 242 245 246 248 260 267 265 259 257 254 252 254 258 259 261 262 262 262 262 261 259 257 254
217 217 213 204 204 223 245 247 250 228 217 218 223 229 233 238 246 249 246 241 216 206 207 215 225 229 229 238 250 262 267 267 264 259 258 255 252 252 255 256 259 262 263 262 262 262 261 259 257